TimeEDT,TemperatureF,Dew PointF,Humidity,Sea Level PressureIn,VisibilityMPH,Wind Direction,Wind SpeedMPH,Gust SpeedMPH,PrecipitationIn,Events,Conditions,WindDirDegrees,DateUTC
12:15 AM,39.2,37.4,93,30.16,10.0,Calm,Calm,-,N/A,,Unknown,0,2013-05-13 04:15:00
12:55 AM,39.2,37.4,93,30.17,10.0,Calm,Calm,-,N/A,,Unknown,0,2013-05-13 04:55:00
1:15 AM,39.2,37.4,93,30.17,10.0,Calm,Calm,-,N/A,,Unknown,0,2013-05-13 05:15:00
1:35 AM,39.2,37.4,93,30.16,10.0,Calm,Calm,-,N/A,,Unknown,0,2013-05-13 05:35:00
1:55 AM,39.2,37.4,93,30.17,10.0,Calm,Calm,-,N/A,,Unknown,0,2013-05-13 05:55:00
2:15 AM,39.2,37.4,93,30.16,10.0,Calm,Calm,-,N/A,,Unknown,0,2013-05-13 06:15:00
2:35 AM,39.2,37.4,93,30.16,10.0,Calm,Calm,-,N/A,,Unknown,0,2013-05-13 06:35:00
2:55 AM,37.4,35.6,93,30.16,9.0,Calm,Calm,-,N/A,,Unknown,0,2013-05-13 06:55:00
3:15 AM,35.6,35.6,100,30.16,9.0,Calm,Calm,-,N/A,,Unknown,0,2013-05-13 07:15:00
3:35 AM,35.6,35.6,100,30.16,10.0,Calm,Calm,-,N/A,,Unknown,0,2013-05-13 07:35:00
3:55 AM,35.6,35.6,100,30.16,9.0,Calm,Calm,-,N/A,,Unknown,0,2013-05-13 07:55:00
4:15 AM,35.6,35.6,100,30.17,8.0,Calm,Calm,-,N/A,,Unknown,0,2013-05-13 08:15:00
4:35 AM,33.8,33.8,100,30.17,10.0,Calm,Calm,-,N/A,,Unknown,0,2013-05-13 08:35:00
4:55 AM,35.6,35.6,100,30.17,10.0,Calm,Calm,-,N/A,,Unknown,0,2013-05-13 08:55:00
5:15 AM,33.8,33.8,100,30.17,10.0,Calm,Calm,-,N/A,,Unknown,0,2013-05-13 09:15:00
5:35 AM,32.0,32.0,100,30.18,9.0,Calm,Calm,-,N/A,,Unknown,0,2013-05-13 09:35:00
5:55 AM,33.8,33.8,100,30.18,10.0,Calm,Calm,-,N/A,,Unknown,0,2013-05-13 09:55:00
6:15 AM,32.0,32.0,100,30.19,9.0,Calm,Calm,-,N/A,,Unknown,0,2013-05-13 10:15:00
6:35 AM,32.0,32.0,100,30.19,10.0,Calm,Calm,-,N/A,,Unknown,0,2013-05-13 10:35:00
6:55 AM,33.8,32.0,93,30.20,9.0,Calm,Calm,-,N/A,,Unknown,0,2013-05-13 10:55:00
7:15 AM,35.6,33.8,93,30.21,10.0,Calm,Calm,-,N/A,,Clear,0,2013-05-13 11:15:00
7:35 AM,37.4,35.6,93,30.21,10.0,Calm,Calm,-,N/A,,Clear,0,2013-05-13 11:35:00
7:55 AM,37.4,35.6,93,30.22,10.0,Calm,Calm,-,N/A,,Clear,0,2013-05-13 11:55:00
8:15 AM,39.2,35.6,87,30.22,10.0,Calm,Calm,-,N/A,,Clear,0,2013-05-13 12:15:00
8:35 AM,41.0,37.4,87,30.23,10.0,Calm,Calm,-,N/A,,Clear,0,2013-05-13 12:35:00
8:55 AM,44.6,37.4,76,30.23,10.0,Calm,Calm,-,N/A,,Clear,0,2013-05-13 12:55:00
9:15 AM,46.4,35.6,66,30.23,10.0,Calm,Calm,-,N/A,,Clear,0,2013-05-13 13:15:00
9:35 AM,48.2,35.6,62,30.24,10.0,Calm,Calm,-,N/A,,Clear,0,2013-05-13 13:35:00
9:55 AM,50.0,32.0,50,30.24,10.0,Calm,Calm,-,N/A,,Clear,0,2013-05-13 13:55:00
10:15 AM,53.6,32.0,44,30.24,10.0,Calm,Calm,-,N/A,,Clear,0,2013-05-13 14:15:00
10:35 AM,53.6,28.4,38,30.24,10.0,Calm,Calm,-,N/A,,Clear,0,2013-05-13 14:35:00
10:55 AM,55.4,28.4,36,30.25,10.0,NW,4.6,-,N/A,,Clear,310,2013-05-13 14:55:00
11:15 AM,55.4,26.6,33,30.25,10.0,NW,5.8,-,N/A,,Clear,310,2013-05-13 15:15:00
11:35 AM,55.4,26.6,33,30.24,10.0,West,5.8,-,N/A,,Clear,270,2013-05-13 15:35:00
11:55 AM,55.4,26.6,33,30.24,10.0,West,12.7,-,N/A,,Partly Cloudy,260,2013-05-13 15:55:00
12:15 PM,57.2,26.6,31,30.24,10.0,WNW,9.2,-,N/A,,Partly Cloudy,290,2013-05-13 16:15:00
12:35 PM,57.2,26.6,31,30.23,10.0,Calm,Calm,-,N/A,,Partly Cloudy,0,2013-05-13 16:35:00
12:55 PM,57.2,26.6,31,30.23,10.0,Calm,Calm,-,N/A,,Partly Cloudy,0,2013-05-13 16:55:00
1:15 PM,57.2,26.6,31,30.22,10.0,WSW,8.1,-,N/A,,Partly Cloudy,240,2013-05-13 17:15:00
1:35 PM,59.0,26.6,29,30.21,10.0,West,10.4,-,N/A,,Clear,260,2013-05-13 17:35:00
1:55 PM,59.0,26.6,29,30.20,10.0,Calm,Calm,-,N/A,,Clear,0,2013-05-13 17:55:00
2:15 PM,60.8,28.4,29,30.19,10.0,NW,9.2,-,N/A,,Clear,310,2013-05-13 18:15:00
2:35 PM,59.0,26.6,29,30.19,10.0,SW,9.2,-,N/A,,Clear,230,2013-05-13 18:35:00
2:55 PM,60.8,28.4,29,30.18,10.0,Calm,Calm,-,N/A,,Clear,0,2013-05-13 18:55:00
3:15 PM,62.6,26.6,26,30.18,10.0,WNW,6.9,24.2,N/A,,Clear,300,2013-05-13 19:15:00
3:35 PM,60.8,26.6,27,30.17,10.0,WNW,4.6,-,N/A,,Clear,300,2013-05-13 19:35:00
4:15 PM,62.6,28.4,27,30.16,10.0,NW,10.4,17.3,N/A,,Partly Cloudy,320,2013-05-13 20:15:00
4:35 PM,62.6,28.4,27,30.16,10.0,Calm,Calm,-,N/A,,Partly Cloudy,0,2013-05-13 20:35:00
4:55 PM,59.0,26.6,29,30.16,10.0,WNW,5.8,16.1,N/A,,Scattered Clouds,300,2013-05-13 20:55:00
5:15 PM,60.8,26.6,27,30.16,10.0,West,9.2,19.6,N/A,,Partly Cloudy,270,2013-05-13 21:15:00
5:35 PM,60.8,28.4,29,30.16,10.0,NNW,6.9,18.4,N/A,,Clear,340,2013-05-13 21:35:00
5:55 PM,62.6,28.4,27,30.15,10.0,West,13.8,19.6,N/A,,Partly Cloudy,260,2013-05-13 21:55:00
6:15 PM,60.8,28.4,29,30.15,10.0,West,6.9,-,N/A,,Partly Cloudy,270,2013-05-13 22:15:00
6:35 PM,60.8,28.4,29,30.15,10.0,WNW,12.7,20.7,N/A,,Scattered Clouds,290,2013-05-13 22:35:00
6:55 PM,59.0,30.2,34,30.16,10.0,WNW,5.8,-,N/A,,Partly Cloudy,290,2013-05-13 22:55:00
7:15 PM,59.0,30.2,34,30.16,10.0,NW,5.8,-,N/A,,Clear,310,2013-05-13 23:15:00
7:55 PM,57.2,32.0,38,30.17,10.0,Calm,Calm,-,N/A,,Partly Cloudy,0,2013-05-13 23:55:00
8:15 PM,55.4,32.0,41,30.17,10.0,Calm,Calm,-,N/A,,Partly Cloudy,0,2013-05-14 00:15:00
8:35 PM,55.4,32.0,41,30.18,10.0,Calm,Calm,-,N/A,,Partly Cloudy,0,2013-05-14 00:35:00
8:55 PM,55.4,32.0,41,30.19,10.0,Calm,Calm,-,N/A,,Scattered Clouds,0,2013-05-14 00:55:00
9:15 PM,51.8,33.8,50,30.20,10.0,Calm,Calm,-,N/A,,Unknown,0,2013-05-14 01:15:00
9:35 PM,50.0,37.4,62,30.20,10.0,Calm,Calm,-,N/A,,Unknown,0,2013-05-14 01:35:00
9:55 PM,50.0,35.6,58,30.21,10.0,Calm,Calm,-,N/A,,Unknown,0,2013-05-14 01:55:00
10:15 PM,46.4,37.4,71,30.22,10.0,Calm,Calm,-,N/A,,Clear,0,2013-05-14 02:15:00
10:35 PM,44.6,37.4,76,30.23,10.0,Calm,Calm,-,N/A,,Clear,0,2013-05-14 02:35:00
10:55 PM,42.8,39.2,87,30.23,10.0,Calm,Calm,-,N/A,,Clear,0,2013-05-14 02:55:00
11:15 PM,41.0,37.4,87,30.23,10.0,Calm,Calm,-,N/A,,Clear,0,2013-05-14 03:15:00
11:35 PM,41.0,37.4,87,30.23,10.0,Calm,Calm,-,N/A,,Clear,0,2013-05-14 03:35:00
11:55 PM,41.0,39.2,93,30.23,10.0,Calm,Calm,-,N/A,,Clear,0,2013-05-14 03:55:00